Glendale Luke AFB, AZ

6:54 AM MST on November 19, 2019 (GMT -0700)
Luke Air Force Base

Weather History for KLUF - September, 2019

Change the Weather History Date:

Saturday, September 7, 2019

  Actual Average Record
Temperature  
Mean Temperature 98 °F -  
Max Temperature 106 °F 103 °F 112 °F (1977)
Min Temperature 89 °F 69 °F 62 °F (1929)
Cooling Degree Days 32    
Growing Degree Days 48 (Base 50)    
Moisture  
Dew Point 58 °F    
Average Humidity 28    
Maximum Humidity 45    
Minimum Humidity 14    
Precipitation  
Precipitation 0.00 in - - ()
Sea Level Pressure  
Sea Level Pressure 29.76 in    
Wind  
Wind Speed 10 mph (SW)    
Max Wind Speed 18 mph    
Max Gust Speed 23 mph    
Visibility 10 miles    
Events      
Averages and records for this station are not official NWS values.
T = Trace of Precipitation, MM = Missing Value Source: NWS Daily Summary

Daily Weather History Graph

Daily Weather History Graph

Search for Another Location

Airport or City:

Astronomy

Sep. 07, 2019 Rise Set
Actual Time 6:07 AM MST 6:47 PM MST
Civil Twilight 5:42 AM MST 7:12 PM MST
Nautical Twilight 5:12 AM MST 7:41 PM MST
Astronomical Twilight 4:42 AM MST 8:11 PM MST
Moon 2:52 PM MST (9/7) 12:15 AM MST (9/7)
Length of Visible Light 13h 29m
Length of Day
12h 39m
Waxing Gibbous, 67% of the Moon is Illuminated
Sep 7
Waxing Gibbous
Sep 13
Full
Sep 21
Last Quarter
Sep 28
New
Oct 5
First Quarter

Hourly Weather History & Observations

Time (MST) Temp. Heat Index Dew Point Humidity Pressure Visibility Wind Dir Wind Speed Gust Speed Precip Events Conditions
12:58 AM 95.4 °F 94.6 °F 57.9 °F 29% 29.80 in 10.0 mi SW 3.5 mph - N/A   Partly Cloudy
1:58 AM 92.7 °F 91.8 °F 58.5 °F 32% 29.79 in 10.0 mi Calm Calm - N/A   Scattered Clouds
2:58 AM 93.2 °F 92.2 °F 57.9 °F 31% 29.79 in 10.0 mi SW 3.5 mph - N/A   Mostly Cloudy
3:58 AM 91.8 °F 91.2 °F 59.4 °F 34% 29.79 in 10.0 mi West 4.6 mph - N/A   Mostly Cloudy
4:58 AM 90.7 °F 90.7 °F 60.8 °F 37% 29.79 in 10.0 mi SW 13.8 mph - N/A   Scattered Clouds
5:58 AM 89.2 °F 89.9 °F 62.4 °F 41% 29.81 in 10.0 mi SW 13.8 mph - N/A   Partly Cloudy
6:58 AM 89.2 °F 91.3 °F 65.1 °F 45% 29.82 in 10.0 mi SW 12.7 mph - N/A   Clear
7:58 AM 91.6 °F 93.1 °F 64.4 °F 40% 29.83 in 10.0 mi SW 16.1 mph - N/A   Clear
8:58 AM 92.8 °F 95.6 °F 65.7 °F 41% 29.84 in 10.0 mi SW 16.1 mph - N/A   Partly Cloudy
9:58 AM 95.2 °F 97.8 °F 65.5 °F 37% 29.83 in 10.0 mi SW 13.8 mph - N/A   Clear
10:58 AM 98.8 °F 100.8 °F 63.7 °F 31% 29.82 in 10.0 mi SW 12.7 mph - N/A   Partly Cloudy
11:58 AM 100.8 °F 101.9 °F 61.5 °F 27% 29.79 in 10.0 mi SSW 13.8 mph - N/A   Clear
12:58 PM 103.5 °F 104.4 °F 59.5 °F 24% 29.77 in 10.0 mi SW 13.8 mph 23.0 mph N/A   Partly Cloudy
1:58 PM 104.9 °F 105.4 °F 58.3 °F 22% 29.74 in 10.0 mi SW 12.7 mph 21.9 mph N/A   Clear
1:59 PM 105.8 °F 106.8 °F 59.0 °F 22% 29.74 in 10.0 mi WSW 13.8 mph 21.9 mph N/A   Clear
2:09 PM 105.8 °F 106.8 °F 59.0 °F 22% 29.73 in 10.0 mi SSW 16.1 mph - N/A   Partly Cloudy
2:18 PM 104.0 °F 104.6 °F 59.0 °F 23% 29.73 in 10.0 mi WSW 11.5 mph - N/A   Clear
2:58 PM 106.0 °F 105.1 °F 55.0 °F 19% 29.72 in 10.0 mi SW 10.4 mph - N/A   Clear
3:58 PM 106.5 °F - 52.5 °F 17% 29.69 in 10.0 mi SW 17.3 mph - N/A   Clear
4:58 PM 106.0 °F - 46.9 °F 14% 29.68 in 10.0 mi WSW 17.3 mph - N/A   Clear
5:58 PM 104.4 °F - 49.1 °F 16% 29.68 in 10.0 mi SW 18.4 mph - N/A   Clear
6:58 PM 100.9 °F - 49.6 °F 18% 29.68 in 10.0 mi SW 16.1 mph - N/A   Clear
7:58 PM 98.2 °F - 50.2 °F 20% 29.70 in 10.0 mi SW 11.5 mph - N/A   Clear
8:58 PM 97.5 °F - 49.6 °F 20% 29.73 in 10.0 mi West 9.2 mph - N/A   Clear
9:58 PM 95.7 °F - 49.5 °F 21% 29.73 in 10.0 mi SW 8.1 mph - N/A   Clear
10:58 PM 93.9 °F - 51.6 °F 24% 29.72 in 10.0 mi SW 11.5 mph - N/A   Clear
11:58 PM 91.4 °F 91.4 °F 61.3 °F 36% 29.72 in 10.0 mi SW 13.8 mph - N/A   Clear